GFSFLT2_700_spd_189.txt.gz
Wind_Speed
35 34 32 33 34 34 32 31 31 32 30 30 29 27 26 23 21 19 19 19 18 17 17 16 17 18 14
38 37 37 34 34 36 33 33 32 32 32 31 29 28 27 26 24 23 21 20 19 18 17 17 17 18 18
48 40 39 36 38 37 36 34 33 34 33 32 30 29 28 27 26 25 24 22 21 19 18 18 18 18 18
49 46 41 37 39 39 39 37 35 33 34 33 31 30 29 28 28 27 26 24 23 22 21 19 19 19 20
49 47 42 38 38 40 41 37 36 34 33 34 33 31 31 30 29 28 28 27 25 23 22 22 21 21 21
45 44 42 40 37 39 40 38 37 34 33 35 35 32 32 32 31 30 29 29 28 27 26 24 24 23 23
41 41 40 38 38 38 39 39 37 35 35 33 34 32 34 33 33 31 30 30 30 29 29 28 26 25 24
38 37 37 37 36 36 36 37 37 34 35 35 31 31 34 34 33 32 31 31 31 30 30 30 29 28 27
34 34 33 32 33 34 33 34 35 33 32 34 29 30 32 33 32 31 31 31 31 32 31 31 30 29 28
30 31 32 31 29 31 32 32 33 33 30 30 29 31 29 30 31 30 30 31 32 32 31 31 31 30 29
28 29 28 28 28 28 28 29 30 31 31 31 30 30 31 30 29 30 30 31 31 31 32 31 30 29 28
27 27 25 24 25 25 26 27 27 28 27 28 31 30 31 33 33 32 31 32 32 32 32 31 31 31 31
34 28 24 23 23 23 26 26 26 25 24 25 26 26 27 30 33 33 33 34 34 34 33 33 32 31 30
31 29 29 27 27 24 23 27 28 24 25 24 23 23 24 25 27 29 28 29 31 33 33 32 31 30 29
31 30 31 31 29 29 26 25 26 26 23 24 23 24 22 23 25 25 25 26 27 29 31 31 30 29 29
26 28 29 30 31 31 29 29 25 23 21 24 23 23 22 19 20 22 26 27 27 27 27 26 26 27 28
20 21 25 28 29 30 30 30 28 24 22 20 22 22 22 19 18 20 23 25 26 26 24 22 22 26 26

GFSFLT2_700_spd_195.txt.gz
Wind_Speed
54 55 45 45 44 43 44 46 46 44 40 37 38 37 36 35 35 36 35 33 30 28 26 24 23 22 22
57 56 57 50 50 50 47 46 47 48 46 42 38 38 38 37 36 35 35 35 32 30 28 26 25 24 23
60 58 58 59 53 52 52 50 49 49 50 48 42 39 38 39 37 36 34 35 35 33 31 29 27 25 25
57 57 56 56 55 54 54 50 49 50 51 51 46 42 39 39 39 38 36 35 36 35 34 32 29 28 27
54 55 55 53 52 50 51 50 47 45 47 48 47 45 42 41 41 37 37 37 37 36 35 34 32 30 29
43 44 47 49 48 47 47 46 46 41 41 43 46 45 41 41 41 39 37 37 38 37 36 35 35 33 31
42 41 42 42 44 42 42 42 42 39 37 36 36 38 37 36 39 39 37 37 38 37 37 36 35 35 34
39 41 42 44 43 41 40 40 39 37 33 37 33 33 32 30 33 36 36 35 36 37 37 37 36 35 35
36 37 36 34 38 37 34 35 30 32 32 32 31 31 29 27 27 30 32 33 34 34 36 36 36 36 36
32 34 35 34 31 32 35 32 28 32 28 27 25 25 30 27 26 25 28 30 31 32 33 35 35 36 36
32 32 32 33 29 22 29 30 27 27 26 30 23 19 20 25 26 22 25 27 29 31 32 33 33 34 35
32 31 32 32 30 30 30 30 29 25 24 29 28 24 24 24 22 22 25 25 27 30 31 31 31 32 33
32 32 31 31 31 32 30 29 30 28 24 24 31 22 22 23 25 23 23 25 28 28 28 31 31 31 31
30 31 32 32 32 31 31 27 27 27 30 23 21 23 24 18 24 26 26 25 25 29 30 31 29 29 29
27 29 28 27 26 26 26 24 26 25 24 24 22 23 20 21 18 23 24 29 29 26 27 30 32 31 30
27 27 26 23 21 19 19 21 22 22 23 17 21 21 16 17 19 16 19 20 23 25 26 27 28 30 32
28 27 26 23 22 20 19 20 19 19 20 18 22 21 17 14 16 16 17 17 18 23 25 25 25 28 28

GFSFLT2_700_spd_198.txt.gz
Wind_Speed
55 55 55 56 50 48 48 49 50 50 48 47 45 43 42 42 40 38 37 36 34 32 31 29 29 28 26
59 58 58 58 57 57 53 51 53 52 51 51 51 49 45 42 42 42 40 38 36 34 32 31 30 30 29
60 58 58 58 57 57 56 55 53 51 51 52 51 51 48 45 41 43 44 41 39 37 34 33 32 31 30
54 53 52 53 50 52 53 50 51 47 45 46 46 48 48 46 43 43 43 43 42 39 38 36 34 33 32
45 45 45 45 43 42 44 43 42 43 42 38 39 41 44 43 42 42 42 43 41 42 40 38 36 35 34
40 39 38 38 38 40 41 38 41 38 42 40 37 37 38 39 37 37 36 40 40 40 41 40 38 37 36
35 34 35 35 36 39 38 41 44 43 42 42 37 37 36 36 35 33 32 33 36 36 39 40 39 38 37
31 32 33 34 37 36 39 38 37 35 35 35 30 32 33 35 34 32 32 33 31 33 34 38 39 38 38
31 30 31 33 33 35 36 35 35 33 34 34 34 31 25 30 31 30 29 30 30 30 30 33 36 38 37
29 28 29 31 31 33 33 33 27 25 28 32 32 29 25 18 18 22 23 27 29 28 29 29 33 36 37
29 29 28 28 29 29 32 32 31 31 28 30 30 25 24 24 21 18 17 18 25 30 29 30 30 32 35
28 28 29 29 29 29 29 30 30 30 30 29 30 25 27 22 20 18 20 16 17 20 29 30 30 32 35
27 27 28 29 29 30 30 31 30 30 29 26 27 27 25 23 25 20 16 20 18 19 19 22 29 30 32
25 25 26 26 26 27 27 28 26 24 24 24 25 28 26 19 18 19 17 16 19 19 20 20 19 25 30
26 25 25 26 26 25 24 22 20 20 19 20 24 24 23 22 19 16 14 15 18 21 22 21 19 21 21
29 28 28 27 25 24 22 21 20 19 17 17 19 21 16 15 16 16 13 11 15 17 20 26 23 22 22
31 30 29 29 27 24 23 22 21 20 19 17 15 17 16 14 15 17 13 10 13 15 17 20 25 23 23

GFSFLT2_700_spd_201.txt.gz
Wind_Speed
57 58 58 58 58 56 51 51 53 53 53 53 52 51 51 50 48 47 44 44 42 40 39 38 36 34 32
59 58 58 57 56 55 54 53 53 52 53 53 52 50 49 51 50 48 48 47 47 43 41 39 38 37 34
56 53 52 50 50 49 47 47 47 46 46 45 45 46 46 45 47 47 47 46 47 46 45 42 40 39 38
48 48 47 43 44 46 46 43 42 39 38 36 35 37 40 42 42 43 43 44 44 47 46 43 42 41 40
44 44 43 41 40 40 41 40 38 36 36 35 35 33 34 37 42 42 42 41 40 40 44 42 41 41 43
41 41 40 38 36 36 36 38 39 35 39 37 35 35 36 34 36 40 41 41 41 40 39 39 37 39 42
39 37 38 35 35 33 33 35 35 33 38 38 34 33 32 30 31 35 38 38 40 43 41 38 34 35 40
34 33 32 32 32 33 34 35 36 35 34 37 35 33 30 29 29 30 33 34 36 39 41 36 35 32 35
31 29 28 27 29 32 32 35 38 35 32 32 31 31 28 28 27 31 28 27 29 34 39 37 34 35 34
28 26 24 25 26 28 30 32 32 35 32 30 28 28 32 26 23 24 19 14 16 27 31 36 32 38 41
31 27 25 25 25 26 27 29 30 31 30 33 27 27 29 30 27 21 16 20 17 13 23 32 31 36 39
30 27 27 26 25 25 25 26 29 31 30 33 33 29 27 26 28 23 19 13 18 16 14 23 26 33 34
28 26 25 25 24 24 24 25 26 27 27 27 28 26 24 25 29 25 19 13 12 14 13 11 14 24 29
28 26 26 25 24 25 25 24 24 21 21 23 23 23 23 23 26 20 16 17 13 10 12 11 10 13 23
30 29 28 27 25 25 26 25 24 21 19 19 18 18 20 21 20 18 19 16 15 14 15 14 11 11 14
29 29 29 30 28 26 26 25 24 22 20 20 19 17 17 17 18 14 15 14 12 12 13 14 18 14 14
28 29 30 28 28 26 26 24 23 22 20 19 19 19 18 15 13 13 14 13 12 10 12 12 14 19 18

GFSFLT2_700_spd_204.txt.gz
Wind_Speed
55 55 56 57 55 53 52 51 53 53 55 55 55 53 53 53 54 53 53 52 53 52 52 50 46 44 41
54 53 53 51 53 55 54 53 51 49 48 49 49 49 47 47 47 48 51 53 52 51 51 54 51 46 44
53 51 52 50 50 51 52 51 48 45 43 40 40 41 40 41 42 43 45 47 50 52 50 50 51 49 46
49 50 50 49 48 49 50 45 46 41 38 37 36 35 35 38 39 40 41 45 49 50 48 47 48 49 48
46 47 47 45 45 44 44 43 42 38 37 35 34 34 33 34 35 36 42 44 45 48 50 48 47 46 46
43 43 42 41 40 40 40 40 41 36 36 36 32 33 32 31 32 35 36 40 42 43 44 46 47 46 44
40 38 39 37 38 38 37 37 37 35 38 40 34 36 34 32 31 32 34 36 38 39 39 39 42 44 45
36 36 35 34 33 34 35 34 34 33 34 38 34 34 33 29 28 30 31 35 37 35 34 36 36 39 42
34 34 33 31 30 32 33 34 35 34 33 35 34 34 30 26 24 29 29 33 32 34 32 31 32 34 39
33 32 30 29 30 30 33 33 33 35 32 36 35 37 40 29 26 24 25 29 27 29 28 30 29 29 32
34 33 31 28 27 28 30 29 30 30 30 33 33 33 36 39 31 28 25 26 23 19 20 19 26 28 30
35 34 32 29 28 26 25 25 26 27 27 30 31 32 32 31 31 26 24 23 24 19 18 19 16 27 30
34 33 30 30 28 27 25 26 26 26 26 27 26 27 28 28 28 21 26 20 19 17 13 14 12 12 25
33 32 31 30 30 29 28 28 28 25 25 25 25 25 25 25 23 19 24 23 19 21 15 9 8 6 17
32 32 30 30 31 29 29 29 29 27 25 24 24 24 24 24 21 20 22 18 17 18 15 11 8 5 6
26 26 27 29 31 30 28 28 28 26 25 25 24 23 21 18 22 21 20 18 13 13 14 12 9 10 6
18 21 28 28 29 27 26 26 24 24 23 23 22 23 22 20 16 19 18 16 12 12 12 11 9 9 13

GFSFLT2_700_spd_207.txt.gz
Wind_Speed
53 53 54 55 53 53 53 53 50 47 48 50 51 52 50 49 49 50 52 52 52 53 54 54 55 55 56
55 53 53 52 53 54 53 54 54 52 49 46 46 48 50 49 47 45 45 46 48 49 50 50 52 54 54
54 53 53 51 52 52 52 51 51 50 49 47 44 42 42 44 44 43 42 42 43 45 46 48 50 50 50
52 52 52 49 51 52 53 50 48 44 43 43 42 41 38 38 40 40 41 42 42 42 44 46 47 48 49
50 50 48 47 47 47 48 48 45 41 40 38 37 36 35 35 35 35 35 36 37 40 42 45 46 48 48
48 47 45 43 44 44 44 44 45 40 38 35 33 32 31 32 32 33 34 36 36 37 39 40 42 44 45
47 44 43 42 42 42 40 41 39 36 37 35 33 33 31 30 29 30 31 33 34 33 35 36 39 41 41
43 42 41 40 40 40 40 39 36 35 36 37 34 33 30 27 26 28 28 32 33 36 39 41 41 39 38
42 41 39 39 37 37 37 38 37 35 34 34 34 33 30 27 26 29 31 32 32 33 36 38 38 36 38
40 38 36 37 37 35 35 35 35 37 30 33 31 33 35 28 27 27 28 31 32 33 33 35 32 33 34
35 33 33 36 36 34 32 33 33 32 28 32 31 30 32 35 29 28 27 25 26 30 29 29 27 29 30
39 39 36 33 34 34 31 29 31 31 28 29 31 31 31 29 31 30 25 20 21 27 25 22 23 21 23
36 37 39 36 33 32 28 28 30 29 30 31 32 31 30 29 31 29 29 21 24 24 22 21 20 17 19
31 32 33 31 31 28 28 27 31 28 29 31 31 31 30 27 28 27 27 25 24 20 20 19 18 14 15
29 28 28 27 25 25 24 28 29 29 28 28 29 30 30 28 26 26 27 24 22 22 18 17 16 13 9
25 25 27 23 19 24 26 29 30 28 27 27 27 28 27 25 24 23 24 25 22 21 18 16 14 12 9
23 24 24 24 24 28 29 30 27 26 25 25 26 27 26 23 20 20 22 22 20 17 16 14 13 10 8

GFSFLT2_700_spd_213.txt.gz
Wind_Speed
43 45 47 50 51 52 54 54 54 53 51 48 48 49 50 50 52 52 51 51 50 48 46 45 44 42 43
47 49 50 51 53 55 55 54 53 51 50 48 47 46 45 44 43 42 41 42 43 44 44 45 43 42 41
51 52 53 52 52 51 51 50 50 48 44 44 43 42 43 44 44 43 42 41 41 42 42 43 43 43 41
51 52 51 50 50 51 51 49 49 45 41 42 40 38 38 40 40 40 40 41 41 40 40 40 41 41 41
50 50 49 48 47 48 50 50 49 45 44 38 36 33 33 35 37 38 37 37 38 38 38 39 39 39 39
47 48 47 48 47 48 47 48 50 45 44 38 34 32 30 30 31 33 34 34 35 35 35 35 36 37 36
46 47 48 47 48 47 45 46 46 41 39 39 34 33 30 28 28 28 27 29 30 31 31 33 35 36 37
42 43 43 42 41 42 42 41 42 38 34 40 36 34 31 27 25 24 25 27 29 30 31 34 35 36 37
41 40 40 39 37 37 38 39 42 38 37 39 34 34 31 27 24 22 22 26 28 28 32 34 33 33 34
37 35 34 34 32 32 34 38 39 39 32 37 34 33 34 28 22 21 22 25 27 29 30 32 30 33 35
37 36 32 29 29 28 31 35 37 35 29 33 32 32 33 36 28 22 23 25 26 27 28 28 30 33 36
34 33 32 30 27 26 28 30 31 31 26 26 30 30 33 33 33 25 24 26 27 28 27 28 29 29 27
32 31 30 28 26 25 24 25 25 24 24 23 23 28 32 34 35 29 28 27 26 28 27 27 29 27 26
31 30 29 27 24 24 24 23 22 19 19 19 23 29 33 32 32 31 27 29 27 28 28 26 27 26 26
31 30 29 27 25 23 24 24 23 22 21 24 30 32 32 32 31 29 27 26 26 27 28 27 24 23 24
30 30 29 28 26 23 24 24 23 22 23 25 26 27 27 23 24 27 24 26 25 25 24 28 25 19 22
29 29 29 29 28 27 25 25 23 22 22 23 24 26 27 26 18 19 26 23 24 22 22 22 24 19 20

GFSFLT2_700_spd_216.txt.gz
Wind_Speed
38 39 41 43 45 46 47 48 49 48 48 49 48 47 47 49 50 51 51 51 50 50 50 50 49 47 46
41 43 44 46 47 48 47 48 49 49 48 48 48 47 47 46 45 45 43 41 40 40 40 41 42 45 45
44 46 46 46 46 46 48 48 49 48 48 48 45 44 44 44 43 41 41 40 39 38 38 38 39 40 41
45 45 44 46 46 48 49 48 50 49 45 46 46 43 39 38 38 38 40 41 40 40 39 38 38 38 38
42 43 44 44 45 46 47 48 48 49 48 44 41 39 35 35 35 35 36 37 37 37 36 35 34 35 36
43 43 43 43 45 46 46 47 47 45 46 46 43 41 33 33 31 32 33 33 34 34 34 33 32 31 32
41 40 41 42 44 45 45 45 44 43 43 44 39 39 35 32 27 29 30 31 32 33 33 33 32 32 33
37 38 39 41 42 43 44 45 46 44 43 44 40 35 33 31 27 27 28 30 31 33 33 33 34 35 35
35 36 37 39 40 42 40 44 44 42 38 39 38 37 33 30 27 26 27 28 30 32 31 31 34 35 36
34 33 35 37 38 40 42 42 42 42 34 37 37 34 37 31 30 27 28 28 29 31 30 30 33 35 37
37 37 36 35 36 36 36 37 37 37 31 34 36 33 33 35 32 28 28 29 29 30 30 31 31 33 37
39 38 38 36 34 33 31 31 32 33 31 31 34 32 32 32 32 32 31 29 29 28 28 29 29 30 32
40 40 38 36 34 32 30 30 29 28 29 30 30 28 28 32 37 37 36 32 28 28 27 28 29 29 31
39 38 36 34 32 31 32 30 29 25 25 28 29 29 30 33 35 33 32 33 31 28 26 27 27 28 30
37 35 34 33 31 31 32 32 31 29 26 24 27 28 28 30 29 29 33 33 30 29 29 28 25 27 28
32 31 32 32 32 31 32 32 31 29 28 27 27 27 27 26 26 26 26 30 29 27 26 29 26 24 26
30 30 30 31 32 32 32 31 30 30 28 27 27 27 27 27 23 22 25 28 29 25 24 23 26 24 25